Regional Weather Roundup
Issued by NWS

Home | Current Version | Previous Version | Graphics & Text | Print | Product List | Glossary On
Versions: 1 2 3 4 5 6 7 8 9 10 11 12 13 14 15 16 17 18 19 20 21 22 23 24 25 26 27 28 29 30 31 32 33 34 35 36 37 38 39 40 41 42 43 44 45 46 47 48 49 50
000
ASUS45 KPSR 301010
RWRAZ

ARIZONA HOURLY REGIONAL WEATHER ROUNDUP
NATIONAL WEATHER SERVICE PHOENIX AZ
300 AM MST SAT APR 30 2016

NOTE: FAIR INDICATES FEW OR NO CLOUDS BELOW 12,000 FEET WITH NO
SIGNIFICANT WEATHER AND/OR OBSTRUCTIONS TO VISIBILITY.

AZZ001>003-036-301100-
NORTHWEST ARIZONA

CITY           SKY/WX    TMP DP  RH WIND       PRES   REMARKS
BULLHEAD CITY  CLEAR     66  37  34 SE6       29.66S
KINGMAN        PTCLDY    56  36  47 SE9       29.72F
$$

AZZ004>008-015-016-018-301100-
NORTH CENTRAL ARIZONA

CITY           SKY/WX    TMP DP  RH WIND       PRES   REMARKS
GRAND CANYON   CLOUDY    37  34  89 CALM      29.85F
WILLIAMS       MOCLDY    39  34  81 S8        29.93F WCI  34
PRESCOTT       MOCLDY    51  32  48 VRB6      29.83F
FLAGSTAFF      CLOUDY    34  34 100 CALM      29.88F
PAYSON         CLOUDY    45  41  87 CALM      29.89F
PAGE           CLOUDY    51  41  68 CALM      29.81S
$$

AZZ009>014-017-301100-
NORTHEAST ARIZONA

CITY           SKY/WX    TMP DP  RH WIND       PRES   REMARKS
WINSLOW        CLOUDY    48  34  58 CALM      29.85F
SAINT JOHNS    CLOUDY    42  39  89 S7        29.88F
WINDOW ROCK    CLOUDY    40  34  79 CALM      29.89F
SHOW LOW       MOCLDY    37  34  87 S12       29.91F WCI  30
$$

AZZ023-301100-
GREATER PHOENIX AREA

CITY           SKY/WX    TMP DP  RH WIND       PRES   REMARKS
PHOENIX        PTCLDY    70  37  29 N5        29.73F
BUCKEYE        CLEAR     63  39  42 CALM      29.76F
LUKE AFB       CLEAR     65  40  39 SW13      29.72F
DEER VALLEY    CLEAR     65  37  35 SW7       29.75S
SCOTTSDALE     CLEAR     67  36  31 CALM      29.77F
MESA-GATEWAY   CLEAR     61  32  33 E9        29.77F
$$

AZZ027-028-301100-
SOUTHWEST MARICOPA COUNTY AND PINAL COUNTY

CITY           SKY/WX    TMP DP  RH WIND       PRES   REMARKS
CASA GRANDE    CLEAR     61  34  36 CALM      29.78S
GILA BEND      FAIR      61  35  38 S2        29.73F
$$

AZZ503-504-507>509-301100-
SOUTHEAST ARIZONA

CITY           SKY/WX    TMP DP  RH WIND       PRES   REMARKS
TUCSON         CLEAR     58  34  40 SE9       29.85F
DAVIS-MONTHAN  CLEAR     54  33  45 SE10      29.83F
NOGALES        CLEAR     47  33  58 CALM      29.88F
SIERRA VISTA   CLEAR     50  33  51 SW3       29.91S
DOUGLAS        CLEAR     44  24  45 E5        29.90F
SAFFORD        CLEAR     53  30  41 SE5       29.83S
$$

AZZ020-021-025-026-031-301100-
SOUTHWEST ARIZONA

CITY           SKY/WX    TMP DP  RH WIND       PRES   REMARKS
YUMA           CLEAR     66  52  60 SE16      29.70F
$$

CAZ031-033-041-043-047-048-061-301100-
SOUTHERN CALIFORNIA

CITY           SKY/WX    TMP DP  RH WIND       PRES   REMARKS
DOWNTOWN L.A.  CLOUDY    57  51  80 CALM      29.84F
L.A. AIRPORT   CLOUDY    57  49  74 S7        29.84F
SAN DIEGO      CLOUDY    60  49  66 SW14      29.90F
BURBANK        CLOUDY    54  48  80 SE6       29.83F
ONTARIO        MOCLDY    55  49  80 W9        29.84F
RIVERSIDE      CLOUDY    56  49  77 CALM      29.84F
PALM SPRINGS   CLEAR     63  48  58 SE5       29.68F
EL CENTRO NAS  CLEAR    N/A N/A N/A W23G32    29.71F
IMPERIAL       CLEAR     67  41  38 W22G32    29.68F
BLYTHE         CLEAR     66  44  45 S15       29.67F
NEEDLES        CLEAR     70  36  28 SW10      29.65S
$$

NVZ020-UTZ003-301100-
SOUTHERN NEVADA-UTAH

CITY           SKY/WX    TMP DP  RH WIND       PRES   REMARKS
LAS VEGAS      CLOUDY    57  46  66 N23G32    29.69S
SALT LAKE CITY MOCLDY    48  39  71 N3        29.86R
$$

NMZ009-TXZ055-301100-
NEW MEXICO-WEST TEXAS

CITY           SKY/WX    TMP DP  RH WIND       PRES   REMARKS
ALBUQUERQUE    PTCLDY    45  37  73 S6        29.87F
EL PASO        PTCLDY    55  28  35 S7        29.86R
$$


........................KEY........................
SKY/WX - SKY CONDITION/WEATHER
TMP    - TEMPERATURE IN FAHRENHEIT
DP     - DEW POINT IN FAHRENHEIT
RH     - RELATIVE HUMIDITY IN PERCENT
WIND   - DIRECTION AND SPEED IN MILES PER HOUR (MPH)
VRB    - VARIABLE WIND DIRECTION
PRES   - MEAN SEA LEVEL PRESSURE IN INCHES OF MERCURY
         F - FALLING PRESSURE   R - RISING PRESSURE
         S - STEADY PRESSURE
VSB    - VISIBILITY IN MILES
HX     - HEAT INDEX IN FAHRENHEIT
WCI    - WIND CHILL INDEX IN FAHRENHEIT
TC     - TEMPERATURE IN CELSIUS WHICH IS ALSO KNOWN AS
         TEMPERATURE IN CENTIGRADE
AFB    - AIR FORCE BASE
         LUKE AFB IS LUKE AIR FORCE BASE
         DAVIS-MONTHAN IS DAVIS-MONTHAN AIR FORCE BASE
NAS    - NAVAL AIR STATION
         EL CENTRO NAS IS EL CENTRO NAVAL AIR STATION
N/A    - NOT AVAILABLE




USA.gov is the U.S. government's official web portal to all federal, state and local government web resources and services.